TimeEDT,TemperatureF,Dew PointF,Humidity,Sea Level PressureIn,VisibilityMPH,Wind Direction,Wind SpeedMPH,Gust SpeedMPH,PrecipitationIn,Events,Conditions,WindDirDegrees,DateUTC
12:05 AM,66.2,66.2,100,29.91,2.5,Calm,Calm,-,N/A,,Clear,0,2013-07-12 04:05:00
12:13 AM,68.0,68.0,100,29.91,4.0,Calm,Calm,-,N/A,,Clear,0,2013-07-12 04:13:00
12:32 AM,68.0,68.0,100,29.91,2.5,Calm,Calm,-,N/A,,Clear,0,2013-07-12 04:32:00
12:46 AM,66.2,66.2,100,29.92,1.0,Calm,Calm,-,N/A,,Mist,0,2013-07-12 04:46:00
12:53 AM,64.9,64.9,100,29.92,0.2,Calm,Calm,-,N/A,Fog,Fog,0,2013-07-12 04:53:00
1:15 AM,66.2,66.2,100,29.92,1.2,Calm,Calm,-,N/A,,Scattered Clouds,0,2013-07-12 05:15:00
1:18 AM,66.2,66.2,100,29.92,3.0,Calm,Calm,-,N/A,,Scattered Clouds,0,2013-07-12 05:18:00
1:53 AM,66.0,66.0,100,29.93,6.0,Calm,Calm,-,N/A,,Clear,0,2013-07-12 05:53:00
2:53 AM,70.0,70.0,100,29.94,9.0,Calm,Calm,-,N/A,,Clear,0,2013-07-12 06:53:00
3:53 AM,69.1,68.0,96,29.98,10.0,Calm,Calm,-,N/A,,Clear,0,2013-07-12 07:53:00
4:17 AM,69.8,68.0,94,29.99,10.0,NE,3.5,-,N/A,,Mostly Cloudy,50,2013-07-12 08:17:00
4:24 AM,69.8,68.0,94,29.99,10.0,NE,3.5,-,N/A,,Mostly Cloudy,40,2013-07-12 08:24:00
4:42 AM,69.8,69.8,100,29.99,10.0,NNE,4.6,-,N/A,,Scattered Clouds,30,2013-07-12 08:42:00
4:53 AM,69.1,69.1,100,29.99,10.0,NNE,4.6,-,N/A,,Clear,30,2013-07-12 08:53:00
5:53 AM,68.0,66.0,93,30.01,10.0,NE,4.6,-,N/A,,Scattered Clouds,40,2013-07-12 09:53:00
6:53 AM,68.0,63.0,84,30.03,10.0,NE,5.8,-,N/A,,Partly Cloudy,40,2013-07-12 10:53:00
7:53 AM,70.0,62.1,76,30.06,10.0,NE,8.1,-,N/A,,Partly Cloudy,50,2013-07-12 11:53:00
8:53 AM,72.0,62.1,71,30.06,10.0,NE,12.7,20.7,N/A,,Partly Cloudy,40,2013-07-12 12:53:00
9:53 AM,72.0,62.1,71,30.08,10.0,NNE,12.7,19.6,N/A,,Scattered Clouds,30,2013-07-12 13:53:00
10:00 AM,71.6,62.6,73,30.09,10.0,NE,9.2,18.4,N/A,,Mostly Cloudy,50,2013-07-12 14:00:00
10:53 AM,72.0,61.0,68,30.11,10.0,NE,13.8,23.0,N/A,,Overcast,40,2013-07-12 14:53:00
11:53 AM,71.1,60.1,68,30.12,10.0,ENE,12.7,20.7,N/A,,Overcast,60,2013-07-12 15:53:00
12:53 PM,69.1,59.0,70,30.13,10.0,NE,10.4,20.7,N/A,,Overcast,50,2013-07-12 16:53:00
1:53 PM,70.0,59.0,68,30.12,10.0,NE,10.4,18.4,N/A,,Overcast,40,2013-07-12 17:53:00
2:53 PM,71.1,59.0,66,30.13,10.0,NE,11.5,21.9,N/A,,Overcast,50,2013-07-12 18:53:00
3:20 PM,71.6,60.8,69,30.13,10.0,NE,9.2,18.4,N/A,,Mostly Cloudy,40,2013-07-12 19:20:00
3:53 PM,71.1,60.1,68,30.13,10.0,NE,13.8,-,N/A,,Overcast,50,2013-07-12 19:53:00
4:53 PM,71.1,61.0,70,30.13,10.0,ENE,9.2,-,N/A,,Partly Cloudy,70,2013-07-12 20:53:00
5:53 PM,70.0,61.0,73,30.14,10.0,NE,8.1,-,N/A,,Clear,50,2013-07-12 21:53:00
6:53 PM,69.1,61.0,75,30.14,10.0,NE,4.6,-,N/A,,Clear,40,2013-07-12 22:53:00
7:53 PM,68.0,62.1,81,30.15,10.0,NE,4.6,-,N/A,,Clear,50,2013-07-12 23:53:00
8:53 PM,66.9,62.1,84,30.16,9.0,NNE,3.5,-,N/A,,Clear,30,2013-07-13 00:53:00
9:53 PM,66.9,63.0,87,30.17,10.0,NNE,4.6,-,N/A,,Clear,30,2013-07-13 01:53:00
10:53 PM,66.9,63.0,87,30.18,10.0,Calm,Calm,-,N/A,,Mostly Cloudy,0,2013-07-13 02:53:00
11:53 PM,66.9,64.9,93,30.19,10.0,East,3.5,-,N/A,,Mostly Cloudy,80,2013-07-13 03:53:00